Location: Brompton
(51.4000°N, 0.5333°E)
Time: 11:41:58
(UTC+00:00)

USA 306 - Visible Passes

Search period start: 20 September 2021 00:00
Search period end: 30 September 2021 00:00
Orbit: 561 x 576 km, 54.0° (Epoch: 15 September)

Date Brightness Start Highest point End Pass type
(mag) Time Alt. Az. Time Alt. Az. Time Alt. Az.
20 Sep 3.2 19:13:36 10° W 19:17:49 64° N 19:21:14 15° ENE visible
20 Sep 3.5 20:53:47 10° WNW 20:57:16 55° NW 20:57:16 55° NW visible
21 Sep 3.2 19:14:20 10° W 19:18:31 61° N 19:21:42 17° ENE visible
21 Sep 3.6 20:54:28 10° WNW 20:57:43 51° WNW 20:57:43 51° WNW visible
22 Sep 3.2 19:15:04 10° W 19:19:15 60° N 19:22:08 19° ENE visible
22 Sep 3.8 20:55:07 10° WNW 20:58:10 46° WNW 20:58:10 46° WNW visible
23 Sep 3.2 19:15:46 10° WNW 19:19:57 61° N 19:22:35 22° E visible
23 Sep 4.0 20:55:47 10° WNW 20:58:37 41° W 20:58:37 41° W visible
24 Sep 3.1 19:16:27 10° WNW 19:20:40 65° N 19:23:03 25° E visible
24 Sep 4.3 20:56:26 10° WNW 20:59:05 35° W 20:59:05 35° W visible
25 Sep 2.9 19:17:07 10° WNW 19:21:21 73° NNE 19:23:31 28° E visible
25 Sep 4.5 20:57:07 10° WNW 20:59:33 29° W 20:59:33 29° W visible
26 Sep 2.8 19:17:45 10° WNW 19:22:00 84° NNE 19:24:01 30° ESE visible
26 Sep 4.8 20:57:51 10° WNW 21:00:04 24° W 21:00:04 24° W visible
27 Sep 2.8 19:18:23 10° WNW 19:22:38 82° SSW 19:24:34 32° ESE visible
27 Sep 5.1 20:58:41 10° W 21:00:36 20° WSW 21:00:36 20° WSW visible
28 Sep 3.0 19:19:01 10° WNW 19:23:13 66° SSW 19:25:08 31° SE visible
28 Sep 5.4 20:59:40 10° W 21:01:11 16° WSW 21:01:11 16° WSW visible
29 Sep 3.4 19:19:40 10° WNW 19:23:47 51° SSW 19:25:46 27° SSE visible
29 Sep 5.6 21:01:01 10° WSW 21:01:49 12° WSW 21:01:49 12° WSW visible
